Year,Month,Day,Hour,Minute,Value (Times are PST for temperature in C)
2016,05,30,00,00,11.70
2016,05,30,00,01,11.70
2016,05,30,00,02,11.70
2016,05,30,00,03,11.70
2016,05,30,00,04,11.70
2016,05,30,00,05,11.70
2016,05,30,00,06,11.70
2016,05,30,00,07,11.70
2016,05,30,00,08,11.70
2016,05,30,00,09,11.70
2016,05,30,00,10,11.70
2016,05,30,00,11,11.60
2016,05,30,00,12,11.60
2016,05,30,00,13,11.60
2016,05,30,00,14,11.60
2016,05,30,00,15,11.60
2016,05,30,00,16,11.50
2016,05,30,00,17,11.50
2016,05,30,00,18,11.50
2016,05,30,00,19,11.40
2016,05,30,00,20,11.40
2016,05,30,00,21,11.40
2016,05,30,00,22,11.40
2016,05,30,00,23,11.40
2016,05,30,00,24,11.40
2016,05,30,00,25,11.40
2016,05,30,00,26,11.40
2016,05,30,00,27,11.40
2016,05,30,00,28,11.40
2016,05,30,00,29,11.40
2016,05,30,00,30,11.30
2016,05,30,00,31,11.30
2016,05,30,00,32,11.30
2016,05,30,00,33,11.30
2016,05,30,00,34,11.30
2016,05,30,00,35,11.30
2016,05,30,00,36,11.30
2016,05,30,00,37,11.20
2016,05,30,00,38,11.20
2016,05,30,00,39,11.20
2016,05,30,00,40,11.20
2016,05,30,00,41,11.20
2016,05,30,00,42,11.10
2016,05,30,00,43,11.10
2016,05,30,00,44,11.10
2016,05,30,00,45,11.10
2016,05,30,00,46,11.10
2016,05,30,00,47,11.10
2016,05,30,00,48,11.00
2016,05,30,00,49,11.00
2016,05,30,00,50,11.00
2016,05,30,00,51,11.00
2016,05,30,00,52,11.00
2016,05,30,00,53,11.00
2016,05,30,00,54,10.90
2016,05,30,00,55,10.90
2016,05,30,00,56,10.90
2016,05,30,00,57,10.90
2016,05,30,00,58,10.90
2016,05,30,00,59,10.90
2016,05,30,01,00,10.80
2016,05,30,01,01,10.80
2016,05,30,01,02,10.70
2016,05,30,01,03,10.70
2016,05,30,01,04,10.60
2016,05,30,01,05,10.60
2016,05,30,01,06,10.50
2016,05,30,01,07,10.50
2016,05,30,01,08,10.50
2016,05,30,01,09,10.40
2016,05,30,01,10,10.40
2016,05,30,01,11,10.40
2016,05,30,01,12,10.40
2016,05,30,01,13,10.40
2016,05,30,01,14,10.40
2016,05,30,01,15,10.40
2016,05,30,01,16,10.30
2016,05,30,01,17,10.30
2016,05,30,01,18,10.30
2016,05,30,01,19,10.30
2016,05,30,01,20,10.20
2016,05,30,01,21,10.20
2016,05,30,01,22,10.20
2016,05,30,01,23,10.20
2016,05,30,01,24,10.20
2016,05,30,01,25,10.10
2016,05,30,01,26,10.10
2016,05,30,01,27,10.10
2016,05,30,01,28,10.10
2016,05,30,01,29,10.10
2016,05,30,01,30,10.10
2016,05,30,01,31,10.10
2016,05,30,01,32,10.10
2016,05,30,01,33,10.10
2016,05,30,01,34,10.10
2016,05,30,01,35,10.10
2016,05,30,01,36,10.10
2016,05,30,01,37,10.10
2016,05,30,01,38,10.10
2016,05,30,01,39,10.10
2016,05,30,01,40,10.10
2016,05,30,01,41,10.00
2016,05,30,01,42,10.00
2016,05,30,01,43,10.00
2016,05,30,01,44,10.00
2016,05,30,01,45,9.90
2016,05,30,01,46,9.90
2016,05,30,01,47,9.90
2016,05,30,01,48,9.90
2016,05,30,01,49,9.90
2016,05,30,01,50,9.90
2016,05,30,01,51,9.90
2016,05,30,01,52,9.90
2016,05,30,01,53,9.90
2016,05,30,01,54,9.90
2016,05,30,01,55,9.90
2016,05,30,01,56,9.90
2016,05,30,01,57,9.90
2016,05,30,01,58,9.90
2016,05,30,01,59,9.80
2016,05,30,02,00,9.80
2016,05,30,02,01,9.80
2016,05,30,02,02,9.70
2016,05,30,02,03,9.70
2016,05,30,02,04,9.60
2016,05,30,02,05,9.60
2016,05,30,02,06,9.50
2016,05,30,02,07,9.50
2016,05,30,02,08,9.40
2016,05,30,02,09,9.40
2016,05,30,02,10,9.40
2016,05,30,02,11,9.30
2016,05,30,02,12,9.30
2016,05,30,02,13,9.30
2016,05,30,02,14,9.30
2016,05,30,02,15,9.30
2016,05,30,02,16,9.30
2016,05,30,02,17,9.30
2016,05,30,02,18,9.30
2016,05,30,02,19,9.30
2016,05,30,02,20,9.30
2016,05,30,02,21,9.30
2016,05,30,02,22,9.30
2016,05,30,02,23,9.30
2016,05,30,02,24,9.20
2016,05,30,02,25,9.20
2016,05,30,02,26,9.20
2016,05,30,02,27,9.20
2016,05,30,02,28,9.20
2016,05,30,02,29,9.20
2016,05,30,02,30,9.20
2016,05,30,02,31,9.20
2016,05,30,02,32,9.20
2016,05,30,02,33,9.20
2016,05,30,02,34,9.20
2016,05,30,02,35,9.10
2016,05,30,02,36,9.10
2016,05,30,02,37,9.10
2016,05,30,02,38,9.10
2016,05,30,02,39,9.00
2016,05,30,02,40,9.00
2016,05,30,02,41,9.00
2016,05,30,02,42,8.90
2016,05,30,02,43,8.90
2016,05,30,02,44,8.90
2016,05,30,02,45,8.90
2016,05,30,02,46,8.90
2016,05,30,02,47,8.90
2016,05,30,02,48,8.80
2016,05,30,02,49,8.80
2016,05,30,02,50,8.70
2016,05,30,02,51,8.70
2016,05,30,02,52,8.70
2016,05,30,02,53,8.70
2016,05,30,02,54,8.70
2016,05,30,02,55,8.70
2016,05,30,02,56,8.60
2016,05,30,02,57,8.60
2016,05,30,02,58,8.60
2016,05,30,02,59,8.60
2016,05,30,03,00,8.60
2016,05,30,03,01,8.60
2016,05,30,03,02,8.60
2016,05,30,03,03,8.60
2016,05,30,03,04,8.50
2016,05,30,03,05,8.50
2016,05,30,03,06,8.50
2016,05,30,03,07,8.40
2016,05,30,03,08,8.40
2016,05,30,03,09,8.40
2016,05,30,03,10,8.40
2016,05,30,03,11,8.40
2016,05,30,03,12,8.30
2016,05,30,03,13,8.30
2016,05,30,03,14,8.30
2016,05,30,03,15,8.30
2016,05,30,03,16,8.30
2016,05,30,03,17,8.30
2016,05,30,03,18,8.30
2016,05,30,03,19,8.30
2016,05,30,03,20,8.20
2016,05,30,03,21,8.20
2016,05,30,03,22,8.20
2016,05,30,03,23,8.20
2016,05,30,03,24,8.20
2016,05,30,03,25,8.20
2016,05,30,03,26,8.20
2016,05,30,03,27,8.20
2016,05,30,03,28,8.20
2016,05,30,03,29,8.20
2016,05,30,03,30,8.20
2016,05,30,03,31,8.20
2016,05,30,03,32,8.20
2016,05,30,03,33,8.20
2016,05,30,03,34,8.20
2016,05,30,03,35,8.20
2016,05,30,03,36,8.20
2016,05,30,03,37,8.20
2016,05,30,03,38,8.10
2016,05,30,03,39,8.10
2016,05,30,03,40,8.10
2016,05,30,03,41,8.10
2016,05,30,03,42,8.10
2016,05,30,03,43,8.00
2016,05,30,03,44,8.00
2016,05,30,03,45,8.00
2016,05,30,03,46,7.90
2016,05,30,03,47,7.90
2016,05,30,03,48,7.90
2016,05,30,03,49,7.90
2016,05,30,03,50,7.90
2016,05,30,03,51,7.90
2016,05,30,03,52,7.90
2016,05,30,03,53,7.90
2016,05,30,03,54,7.90
2016,05,30,03,55,7.90
2016,05,30,03,56,7.90
2016,05,30,03,57,7.90
2016,05,30,03,58,7.90
2016,05,30,03,59,7.90
2016,05,30,04,00,7.80
2016,05,30,04,01,7.80
2016,05,30,04,02,7.80
2016,05,30,04,03,7.80
2016,05,30,04,04,7.70
2016,05,30,04,05,7.70
2016,05,30,04,06,7.70
2016,05,30,04,07,7.60
2016,05,30,04,08,7.60
2016,05,30,04,09,7.60
2016,05,30,04,10,7.60
2016,05,30,04,11,7.60
2016,05,30,04,12,7.60
2016,05,30,04,13,7.60
2016,05,30,04,14,7.60
2016,05,30,04,15,7.60
2016,05,30,04,16,7.70
2016,05,30,04,17,7.70
2016,05,30,04,18,7.70
2016,05,30,04,19,7.60
2016,05,30,04,20,7.60
2016,05,30,04,21,7.60
2016,05,30,04,22,7.60
2016,05,30,04,23,7.60
2016,05,30,04,24,7.60
2016,05,30,04,25,7.60
2016,05,30,04,26,7.60
2016,05,30,04,27,7.60
2016,05,30,04,28,7.60
2016,05,30,04,29,7.60
2016,05,30,04,30,7.60
2016,05,30,04,31,7.50
2016,05,30,04,32,7.50
2016,05,30,04,33,7.50
2016,05,30,04,34,7.50
2016,05,30,04,35,7.40
2016,05,30,04,36,7.40
2016,05,30,04,37,7.40
2016,05,30,04,38,7.30
2016,05,30,04,39,7.30
2016,05,30,04,40,7.30
2016,05,30,04,41,7.30
2016,05,30,04,42,7.30
2016,05,30,04,43,7.30
2016,05,30,04,44,7.30
2016,05,30,04,45,7.30
2016,05,30,04,46,7.30
2016,05,30,04,47,7.30
2016,05,30,04,48,7.30
2016,05,30,04,49,7.30
2016,05,30,04,50,7.30
2016,05,30,04,51,7.30
2016,05,30,04,52,7.30
2016,05,30,04,53,7.30
2016,05,30,04,54,7.30
2016,05,30,04,55,7.30
2016,05,30,04,56,7.20
2016,05,30,04,57,7.20
2016,05,30,04,58,7.10
2016,05,30,04,59,7.10
2016,05,30,05,00,7.10
2016,05,30,05,01,7.10
2016,05,30,05,02,7.00
2016,05,30,05,03,7.00
2016,05,30,05,04,7.00
2016,05,30,05,05,7.00
2016,05,30,05,06,7.00
2016,05,30,05,07,6.90
2016,05,30,05,08,6.90
2016,05,30,05,09,6.90
2016,05,30,05,10,6.90
2016,05,30,05,11,6.90
2016,05,30,05,12,6.90
2016,05,30,05,13,6.90
2016,05,30,05,14,6.90
2016,05,30,05,15,6.90
2016,05,30,05,16,7.00
2016,05,30,05,17,7.00
2016,05,30,05,18,7.00
2016,05,30,05,19,7.10
2016,05,30,05,20,7.10
2016,05,30,05,21,7.10
2016,05,30,05,22,7.00
2016,05,30,05,23,7.00
2016,05,30,05,24,7.00
2016,05,30,05,25,7.00
2016,05,30,05,26,6.90
2016,05,30,05,27,6.90
2016,05,30,05,28,6.90
2016,05,30,05,29,6.90
2016,05,30,05,30,6.90
2016,05,30,05,31,6.90
2016,05,30,05,32,6.90
2016,05,30,05,33,6.90
2016,05,30,05,34,6.90
2016,05,30,05,35,6.90
2016,05,30,05,36,6.90
2016,05,30,05,37,7.00
2016,05,30,05,38,7.00
2016,05,30,05,39,7.00
2016,05,30,05,40,7.00
2016,05,30,05,41,7.00
2016,05,30,05,42,7.00
2016,05,30,05,43,7.00
2016,05,30,05,44,7.00
2016,05,30,05,45,7.10
2016,05,30,05,46,7.10
2016,05,30,05,47,7.10
2016,05,30,05,48,7.10
2016,05,30,05,49,7.10
2016,05,30,05,50,7.00
2016,05,30,05,51,7.00
2016,05,30,05,52,7.00
2016,05,30,05,53,7.00
2016,05,30,05,54,7.00
2016,05,30,05,55,7.00
2016,05,30,05,56,6.90
2016,05,30,05,57,7.00
2016,05,30,05,58,7.00
2016,05,30,05,59,7.00
2016,05,30,06,00,7.00
2016,05,30,06,01,7.00
2016,05,30,06,02,7.10
2016,05,30,06,03,7.10
2016,05,30,06,04,7.10
2016,05,30,06,05,7.10
2016,05,30,06,06,7.10
2016,05,30,06,07,7.20
2016,05,30,06,08,7.20
2016,05,30,06,09,7.20
2016,05,30,06,10,7.20
2016,05,30,06,11,7.20
2016,05,30,06,12,7.20
2016,05,30,06,13,7.20
2016,05,30,06,14,7.20
2016,05,30,06,15,7.20
2016,05,30,06,16,7.20
2016,05,30,06,17,7.20
2016,05,30,06,18,7.20
2016,05,30,06,19,7.30
2016,05,30,06,20,7.30
2016,05,30,06,21,7.30
2016,05,30,06,22,7.30
2016,05,30,06,23,7.30
2016,05,30,06,24,7.40
2016,05,30,06,25,7.40
2016,05,30,06,26,7.40
2016,05,30,06,27,7.40
2016,05,30,06,28,7.40
2016,05,30,06,29,7.40
2016,05,30,06,30,7.50
2016,05,30,06,31,7.60
2016,05,30,06,32,7.60
2016,05,30,06,33,7.70
2016,05,30,06,34,7.70
2016,05,30,06,35,7.80
2016,05,30,06,36,7.80
2016,05,30,06,37,7.90
2016,05,30,06,38,8.00
2016,05,30,06,39,8.00
2016,05,30,06,40,8.20
2016,05,30,06,41,8.20
2016,05,30,06,42,8.30
2016,05,30,06,43,8.40
2016,05,30,06,44,8.40
2016,05,30,06,45,8.40
2016,05,30,06,46,8.50
2016,05,30,06,47,8.60
2016,05,30,06,48,8.70
2016,05,30,06,49,8.80
2016,05,30,06,50,8.90
2016,05,30,06,51,9.00
2016,05,30,06,52,9.10
2016,05,30,06,53,9.20
2016,05,30,06,54,9.30
2016,05,30,06,55,9.40
2016,05,30,06,56,9.40
2016,05,30,06,57,9.40
2016,05,30,06,58,9.40
2016,05,30,06,59,9.40
2016,05,30,07,00,9.40
2016,05,30,07,01,9.40
2016,05,30,07,02,9.40
2016,05,30,07,03,9.40
2016,05,30,07,04,9.40
2016,05,30,07,05,9.40
2016,05,30,07,06,9.40
2016,05,30,07,07,9.40
2016,05,30,07,08,9.50
2016,05,30,07,09,9.50
2016,05,30,07,10,9.50
2016,05,30,07,11,9.50
2016,05,30,07,12,9.60
2016,05,30,07,13,9.60
2016,05,30,07,14,9.60
2016,05,30,07,15,9.60
2016,05,30,07,16,9.70
2016,05,30,07,17,9.80
2016,05,30,07,18,9.80
2016,05,30,07,19,9.90
2016,05,30,07,20,10.00
2016,05,30,07,21,10.00
2016,05,30,07,22,10.10
2016,05,30,07,23,10.20
2016,05,30,07,24,10.30
2016,05,30,07,25,10.40
2016,05,30,07,26,10.50
2016,05,30,07,27,10.60
2016,05,30,07,28,10.70
2016,05,30,07,29,10.80
2016,05,30,07,30,10.90
2016,05,30,07,31,11.00
2016,05,30,07,32,11.00
2016,05,30,07,33,11.10
2016,05,30,07,34,11.20
2016,05,30,07,35,11.20
2016,05,30,07,36,11.30
2016,05,30,07,37,11.30
2016,05,30,07,38,11.30
2016,05,30,07,39,11.30
2016,05,30,07,40,11.40
2016,05,30,07,41,11.40
2016,05,30,07,42,11.40
2016,05,30,07,43,11.50
2016,05,30,07,44,11.60
2016,05,30,07,45,11.70
2016,05,30,07,46,11.80
2016,05,30,07,47,11.90
2016,05,30,07,48,12.10
2016,05,30,07,49,12.20
2016,05,30,07,50,12.30
2016,05,30,07,51,12.40
2016,05,30,07,52,12.50
2016,05,30,07,53,12.60
2016,05,30,07,54,12.60
2016,05,30,07,55,12.70
2016,05,30,07,56,12.70
2016,05,30,07,57,12.80
2016,05,30,07,58,12.80
2016,05,30,07,59,12.90
2016,05,30,08,00,12.90
2016,05,30,08,01,13.00
2016,05,30,08,02,13.00
2016,05,30,08,03,13.10
2016,05,30,08,04,13.10
2016,05,30,08,05,13.20
2016,05,30,08,06,13.20
2016,05,30,08,07,13.30
2016,05,30,08,08,13.30
2016,05,30,08,09,13.30
2016,05,30,08,10,13.30
2016,05,30,08,11,13.30
2016,05,30,08,12,13.30
2016,05,30,08,13,13.30
2016,05,30,08,14,13.30
2016,05,30,08,15,13.30
2016,05,30,08,16,13.40
2016,05,30,08,17,13.40
2016,05,30,08,18,13.40
2016,05,30,08,19,13.50
2016,05,30,08,20,13.60
2016,05,30,08,21,13.60
2016,05,30,08,22,13.70
2016,05,30,08,23,13.70
2016,05,30,08,24,13.70
2016,05,30,08,25,13.80
2016,05,30,08,26,13.80
2016,05,30,08,27,13.90
2016,05,30,08,28,13.90
2016,05,30,08,29,14.00
2016,05,30,08,30,14.00
2016,05,30,08,31,14.10
2016,05,30,08,32,14.20
2016,05,30,08,33,14.20
2016,05,30,08,34,14.30
2016,05,30,08,35,14.30
2016,05,30,08,36,14.40
2016,05,30,08,37,14.40
2016,05,30,08,38,14.40
2016,05,30,08,39,14.50
2016,05,30,08,40,14.50
2016,05,30,08,41,14.50
2016,05,30,08,42,14.50
2016,05,30,08,43,14.60
2016,05,30,08,44,14.60
2016,05,30,08,45,14.70
2016,05,30,08,46,14.80
2016,05,30,08,47,14.80
2016,05,30,08,48,14.90
2016,05,30,08,49,14.90
2016,05,30,08,50,15.00
2016,05,30,08,51,15.00
2016,05,30,08,52,15.10
2016,05,30,08,53,15.10
2016,05,30,08,54,15.10
2016,05,30,08,55,15.20
2016,05,30,08,56,15.30
2016,05,30,08,57,15.30
2016,05,30,08,58,15.30
2016,05,30,08,59,15.30
2016,05,30,09,00,15.30
2016,05,30,09,01,15.40
2016,05,30,09,02,15.40
2016,05,30,09,03,15.50
2016,05,30,09,04,15.50
2016,05,30,09,05,15.50
2016,05,30,09,06,15.40
2016,05,30,09,07,15.30
2016,05,30,09,08,15.20
2016,05,30,09,09,15.20
2016,05,30,09,10,15.20
2016,05,30,09,11,15.20
2016,05,30,09,12,15.30
2016,05,30,09,13,15.40
2016,05,30,09,14,15.50
2016,05,30,09,15,15.60
2016,05,30,09,16,15.70
2016,05,30,09,17,15.80
2016,05,30,09,18,15.80
2016,05,30,09,19,15.90
2016,05,30,09,20,16.00
2016,05,30,09,21,16.00
2016,05,30,09,22,15.90
2016,05,30,09,23,16.00
2016,05,30,09,24,16.00
2016,05,30,09,25,15.90
2016,05,30,09,26,15.90
2016,05,30,09,27,15.80
2016,05,30,09,28,15.80
2016,05,30,09,29,15.80
2016,05,30,09,30,15.90
2016,05,30,09,31,15.90
2016,05,30,09,32,15.90
2016,05,30,09,33,16.00
2016,05,30,09,34,16.00
2016,05,30,09,35,16.10
2016,05,30,09,36,16.10
2016,05,30,09,37,16.20
2016,05,30,09,38,16.20
2016,05,30,09,39,16.20
2016,05,30,09,40,16.20
2016,05,30,09,41,16.30
2016,05,30,09,42,16.30
2016,05,30,09,43,16.30
2016,05,30,09,44,16.20
2016,05,30,09,45,16.20
2016,05,30,09,46,16.20
2016,05,30,09,47,16.20
2016,05,30,09,48,16.30
2016,05,30,09,49,16.30
2016,05,30,09,50,16.40
2016,05,30,09,51,16.40
2016,05,30,09,52,16.40
2016,05,30,09,53,16.40
2016,05,30,09,54,16.30
2016,05,30,09,55,16.30
2016,05,30,09,56,16.30
2016,05,30,09,57,16.40
2016,05,30,09,58,16.40
2016,05,30,09,59,16.40
2016,05,30,10,00,16.50
2016,05,30,10,01,16.50
2016,05,30,10,02,16.60
2016,05,30,10,03,16.60
2016,05,30,10,04,16.60
2016,05,30,10,05,16.50
2016,05,30,10,06,16.40
2016,05,30,10,07,16.30
2016,05,30,10,08,16.20
2016,05,30,10,09,16.20
2016,05,30,10,10,16.20
2016,05,30,10,11,16.20
2016,05,30,10,12,16.30
2016,05,30,10,13,16.30
2016,05,30,10,14,16.40
2016,05,30,10,15,16.40
2016,05,30,10,16,16.50
2016,05,30,10,17,16.50
2016,05,30,10,18,16.60
2016,05,30,10,19,16.60
2016,05,30,10,20,16.60
2016,05,30,10,21,16.70
2016,05,30,10,22,16.80
2016,05,30,10,23,16.90
2016,05,30,10,24,16.90
2016,05,30,10,25,17.00
2016,05,30,10,26,17.10
2016,05,30,10,27,17.10
2016,05,30,10,28,17.10
2016,05,30,10,29,17.10
2016,05,30,10,30,17.10
2016,05,30,10,31,17.00
2016,05,30,10,32,16.90
2016,05,30,10,33,16.80
2016,05,30,10,34,16.80
2016,05,30,10,35,16.80
2016,05,30,10,36,16.80
2016,05,30,10,37,16.80
2016,05,30,10,38,16.80
2016,05,30,10,39,16.80
2016,05,30,10,40,16.80
2016,05,30,10,41,16.80
2016,05,30,10,42,16.90
2016,05,30,10,43,16.90
2016,05,30,10,44,17.00
2016,05,30,10,45,17.10
2016,05,30,10,46,17.20
2016,05,30,10,47,17.20
2016,05,30,10,48,17.30
2016,05,30,10,49,17.30
2016,05,30,10,50,17.30
2016,05,30,10,51,17.40
2016,05,30,10,52,17.40
2016,05,30,10,53,17.30
2016,05,30,10,54,17.30
2016,05,30,10,55,17.30
2016,05,30,10,56,17.30
2016,05,30,10,57,17.20
2016,05,30,10,58,17.20
2016,05,30,10,59,17.30
2016,05,30,11,00,17.30
2016,05,30,11,01,17.20
2016,05,30,11,02,17.20
2016,05,30,11,03,17.30
2016,05,30,11,04,17.30
2016,05,30,11,05,17.40
2016,05,30,11,06,17.40
2016,05,30,11,07,17.40
2016,05,30,11,08,17.30
2016,05,30,11,09,17.30
2016,05,30,11,10,17.30
2016,05,30,11,11,17.30
2016,05,30,11,12,17.30
2016,05,30,11,13,17.40
2016,05,30,11,14,17.40
2016,05,30,11,15,17.40
2016,05,30,11,16,17.40
2016,05,30,11,17,17.40
2016,05,30,11,18,17.50
2016,05,30,11,19,17.50
2016,05,30,11,20,17.60
2016,05,30,11,21,17.70
2016,05,30,11,22,17.80
2016,05,30,11,23,17.80
2016,05,30,11,24,17.90
2016,05,30,11,25,18.00
2016,05,30,11,26,18.10
2016,05,30,11,27,18.10
2016,05,30,11,28,18.20
2016,05,30,11,29,18.20
2016,05,30,11,30,18.30
2016,05,30,11,31,18.30
2016,05,30,11,32,18.30
2016,05,30,11,33,18.20
2016,05,30,11,34,18.20
2016,05,30,11,35,18.10
2016,05,30,11,36,18.10
2016,05,30,11,37,18.10
2016,05,30,11,38,18.10
2016,05,30,11,39,18.20
2016,05,30,11,40,18.30
2016,05,30,11,41,18.40
2016,05,30,11,42,18.50
2016,05,30,11,43,18.50
2016,05,30,11,44,18.50
2016,05,30,11,45,18.60
2016,05,30,11,46,18.60
2016,05,30,11,47,18.60
2016,05,30,11,48,18.60
2016,05,30,11,49,18.60
2016,05,30,11,50,18.70
2016,05,30,11,51,18.80
2016,05,30,11,52,18.80
2016,05,30,11,53,18.80
2016,05,30,11,54,18.70
2016,05,30,11,55,18.60
2016,05,30,11,56,18.60
2016,05,30,11,57,18.70
2016,05,30,11,58,18.70
2016,05,30,11,59,18.70
2016,05,30,12,00,18.80
2016,05,30,12,01,18.80
2016,05,30,12,02,18.80
2016,05,30,12,03,18.90
2016,05,30,12,04,18.90
2016,05,30,12,05,18.90
2016,05,30,12,06,18.80
2016,05,30,12,07,18.70
2016,05,30,12,08,18.70
2016,05,30,12,09,18.70
2016,05,30,12,10,18.70
2016,05,30,12,11,18.70
2016,05,30,12,12,18.70
2016,05,30,12,13,18.70
2016,05,30,12,14,18.60
2016,05,30,12,15,18.60
2016,05,30,12,16,18.50
2016,05,30,12,17,18.30
2016,05,30,12,18,18.20
2016,05,30,12,19,18.10
2016,05,30,12,20,18.00
2016,05,30,12,21,17.80
2016,05,30,12,22,17.60
2016,05,30,12,23,17.50
2016,05,30,12,24,17.40
2016,05,30,12,25,17.20
2016,05,30,12,26,17.00
2016,05,30,12,27,16.80
2016,05,30,12,28,16.60
2016,05,30,12,29,16.50
2016,05,30,12,30,16.40
2016,05,30,12,31,16.30
2016,05,30,12,32,16.40
2016,05,30,12,33,16.50
2016,05,30,12,34,16.60
2016,05,30,12,35,16.70
2016,05,30,12,36,16.90
2016,05,30,12,37,17.10
2016,05,30,12,38,17.20
2016,05,30,12,39,17.30
2016,05,30,12,40,17.40
2016,05,30,12,41,17.40
2016,05,30,12,42,17.40
2016,05,30,12,43,17.40
2016,05,30,12,44,17.50
2016,05,30,12,45,17.60
2016,05,30,12,46,17.70
2016,05,30,12,47,17.80
2016,05,30,12,48,17.80
2016,05,30,12,49,17.90
2016,05,30,12,50,17.90
2016,05,30,12,51,17.90
2016,05,30,12,52,18.00
2016,05,30,12,53,18.10
2016,05,30,12,54,18.20
2016,05,30,12,55,18.30
2016,05,30,12,56,18.30
2016,05,30,12,57,18.30
2016,05,30,12,58,18.30
2016,05,30,12,59,18.30
2016,05,30,13,00,18.30
2016,05,30,13,01,18.20
2016,05,30,13,02,18.20
2016,05,30,13,03,18.20
2016,05,30,13,04,18.10
2016,05,30,13,05,18.10
2016,05,30,13,06,18.10
2016,05,30,13,07,18.00
2016,05,30,13,08,17.90
2016,05,30,13,09,17.90
2016,05,30,13,10,17.80
2016,05,30,13,11,17.80
2016,05,30,13,12,17.90
2016,05,30,13,13,18.10
2016,05,30,13,14,18.20
2016,05,30,13,15,18.30
2016,05,30,13,16,18.40
2016,05,30,13,17,18.50
2016,05,30,13,18,18.50
2016,05,30,13,19,18.50
2016,05,30,13,20,18.40
2016,05,30,13,21,18.10
2016,05,30,13,22,18.00
2016,05,30,13,23,18.00
2016,05,30,13,24,18.00
2016,05,30,13,25,17.90
2016,05,30,13,26,17.70
2016,05,30,13,27,17.60
2016,05,30,13,28,17.60
2016,05,30,13,29,17.60
2016,05,30,13,30,17.70
2016,05,30,13,31,17.80
2016,05,30,13,32,17.90
2016,05,30,13,33,18.00
2016,05,30,13,34,18.20
2016,05,30,13,35,18.20
2016,05,30,13,36,18.10
2016,05,30,13,37,18.10
2016,05,30,13,38,18.10
2016,05,30,13,39,18.10
2016,05,30,13,40,18.10
2016,05,30,13,41,18.20
2016,05,30,13,42,18.30
2016,05,30,13,43,18.40
2016,05,30,13,44,18.40
2016,05,30,13,45,18.50
2016,05,30,13,46,18.60
2016,05,30,13,47,18.60
2016,05,30,13,48,18.70
2016,05,30,13,49,18.80
2016,05,30,13,50,18.90
2016,05,30,13,51,19.00
2016,05,30,13,52,19.20
2016,05,30,13,53,19.30
2016,05,30,13,54,19.30
2016,05,30,13,55,19.30
2016,05,30,13,56,19.30
2016,05,30,13,57,19.20
2016,05,30,13,58,19.20
2016,05,30,13,59,19.20
2016,05,30,14,00,19.30
2016,05,30,14,01,19.20
2016,05,30,14,02,19.10
2016,05,30,14,03,18.90
2016,05,30,14,04,18.80
2016,05,30,14,05,18.70
2016,05,30,14,06,18.70
2016,05,30,14,07,18.70
2016,05,30,14,08,18.70
2016,05,30,14,09,18.70
2016,05,30,14,10,18.70
2016,05,30,14,11,18.80
2016,05,30,14,12,18.80
2016,05,30,14,13,18.70
2016,05,30,14,14,18.40
2016,05,30,14,15,18.20
2016,05,30,14,16,18.00
2016,05,30,14,17,18.00
2016,05,30,14,18,18.10
2016,05,30,14,19,18.20
2016,05,30,14,20,18.30
2016,05,30,14,21,18.40
2016,05,30,14,22,18.50
2016,05,30,14,23,18.50
2016,05,30,14,24,18.40
2016,05,30,14,25,18.40
2016,05,30,14,26,18.40
2016,05,30,14,27,18.50
2016,05,30,14,28,18.40
2016,05,30,14,29,18.50
2016,05,30,14,30,18.50
2016,05,30,14,31,18.40
2016,05,30,14,32,18.40
2016,05,30,14,33,18.40
2016,05,30,14,34,18.40
2016,05,30,14,35,18.40
2016,05,30,14,36,18.40
2016,05,30,14,37,18.30
2016,05,30,14,38,18.30
2016,05,30,14,39,18.30
2016,05,30,14,40,18.40
2016,05,30,14,41,18.40
2016,05,30,14,42,18.50
2016,05,30,14,43,18.60
2016,05,30,14,44,18.60
2016,05,30,14,45,18.70
2016,05,30,14,46,18.70
2016,05,30,14,47,18.80
2016,05,30,14,48,18.90
2016,05,30,14,49,18.90
2016,05,30,14,50,18.90
2016,05,30,14,51,19.00
2016,05,30,14,52,19.10
2016,05,30,14,53,19.30
2016,05,30,14,54,19.30
2016,05,30,14,55,19.30
2016,05,30,14,56,19.30
2016,05,30,14,57,19.20
2016,05,30,14,58,19.20
2016,05,30,14,59,19.20
2016,05,30,15,00,19.20
2016,05,30,15,01,19.20
2016,05,30,15,02,19.20
2016,05,30,15,03,19.20
2016,05,30,15,04,19.20
2016,05,30,15,05,19.20
2016,05,30,15,06,19.20
2016,05,30,15,07,19.10
2016,05,30,15,08,19.10
2016,05,30,15,09,19.00
2016,05,30,15,10,19.00
2016,05,30,15,11,19.00
2016,05,30,15,12,19.00
2016,05,30,15,13,19.10
2016,05,30,15,14,19.10
2016,05,30,15,15,19.10
2016,05,30,15,16,19.20
2016,05,30,15,17,19.20
2016,05,30,15,18,19.20
2016,05,30,15,19,19.20
2016,05,30,15,20,19.10
2016,05,30,15,21,19.10
2016,05,30,15,22,19.10
2016,05,30,15,23,19.10
2016,05,30,15,24,19.10
2016,05,30,15,25,19.20
2016,05,30,15,26,19.20
2016,05,30,15,27,19.20
2016,05,30,15,28,19.20
2016,05,30,15,29,19.10
2016,05,30,15,30,19.10
2016,05,30,15,31,19.00
2016,05,30,15,32,19.10
2016,05,30,15,33,19.10
2016,05,30,15,34,19.10
2016,05,30,15,35,19.10
2016,05,30,15,36,19.00
2016,05,30,15,37,19.00
2016,05,30,15,38,19.00
2016,05,30,15,39,19.10
2016,05,30,15,40,19.00
2016,05,30,15,41,18.90
2016,05,30,15,42,18.90
2016,05,30,15,43,18.80
2016,05,30,15,44,18.70
2016,05,30,15,45,18.50
2016,05,30,15,46,18.30
2016,05,30,15,47,18.20
2016,05,30,15,48,18.20
2016,05,30,15,49,18.20
2016,05,30,15,50,18.10
2016,05,30,15,51,18.00
2016,05,30,15,52,17.90
2016,05,30,15,53,17.90
2016,05,30,15,54,17.80
2016,05,30,15,55,17.80
2016,05,30,15,56,17.80
2016,05,30,15,57,17.80
2016,05,30,15,58,17.70
2016,05,30,15,59,17.50
2016,05,30,16,00,17.40
2016,05,30,16,01,17.40
2016,05,30,16,02,17.40
2016,05,30,16,03,17.40
2016,05,30,16,04,17.50
2016,05,30,16,05,17.60
2016,05,30,16,06,17.70
2016,05,30,16,07,17.70
2016,05,30,16,08,17.80
2016,05,30,16,09,17.90
2016,05,30,16,10,18.10
2016,05,30,16,11,18.20
2016,05,30,16,12,18.30
2016,05,30,16,13,18.30
2016,05,30,16,14,18.30
2016,05,30,16,15,18.20
2016,05,30,16,16,18.30
2016,05,30,16,17,18.30
2016,05,30,16,18,18.30
2016,05,30,16,19,18.40
2016,05,30,16,20,18.50
2016,05,30,16,21,18.60
2016,05,30,16,22,18.60
2016,05,30,16,23,18.60
2016,05,30,16,24,18.60
2016,05,30,16,25,18.60
2016,05,30,16,26,18.60
2016,05,30,16,27,18.50
2016,05,30,16,28,18.50
2016,05,30,16,29,18.60
2016,05,30,16,30,18.60
2016,05,30,16,31,18.60
2016,05,30,16,32,18.60
2016,05,30,16,33,18.60
2016,05,30,16,34,18.70
2016,05,30,16,35,18.80
2016,05,30,16,36,18.90
2016,05,30,16,37,18.90
2016,05,30,16,38,19.10
2016,05,30,16,39,19.20
2016,05,30,16,40,19.20
2016,05,30,16,41,19.20
2016,05,30,16,42,19.20
2016,05,30,16,43,19.30
2016,05,30,16,44,19.30
2016,05,30,16,45,19.30
2016,05,30,16,46,19.30
2016,05,30,16,47,19.40
2016,05,30,16,48,19.40
2016,05,30,16,49,19.40
2016,05,30,16,50,19.40
2016,05,30,16,51,19.40
2016,05,30,16,52,19.30
2016,05,30,16,53,19.20
2016,05,30,16,54,19.10
2016,05,30,16,55,19.00
2016,05,30,16,56,18.80
2016,05,30,16,57,18.70
2016,05,30,16,58,18.70
2016,05,30,16,59,18.70
2016,05,30,17,00,18.80
2016,05,30,17,01,18.80
2016,05,30,17,02,18.90
2016,05,30,17,03,18.90
2016,05,30,17,04,19.00
2016,05,30,17,05,19.10
2016,05,30,17,06,19.20
2016,05,30,17,07,19.20
2016,05,30,17,08,19.20
2016,05,30,17,09,19.30
2016,05,30,17,10,19.20
2016,05,30,17,11,19.20
2016,05,30,17,12,19.20
2016,05,30,17,13,19.20
2016,05,30,17,14,19.20
2016,05,30,17,15,19.10
2016,05,30,17,16,19.10
2016,05,30,17,17,19.10
2016,05,30,17,18,19.00
2016,05,30,17,19,19.00
2016,05,30,17,20,19.00
2016,05,30,17,21,19.00
2016,05,30,17,22,19.10
2016,05,30,17,23,19.10
2016,05,30,17,24,19.10
2016,05,30,17,25,19.20
2016,05,30,17,26,19.10
2016,05,30,17,27,19.10
2016,05,30,17,28,19.10
2016,05,30,17,29,19.10
2016,05,30,17,30,19.10
2016,05,30,17,31,19.00
2016,05,30,17,32,19.00
2016,05,30,17,33,18.90
2016,05,30,17,34,18.90